Flag Weather past 2 weeks in Vitória, Espírito Santo, Brazil

Now
68 °F

Passing clouds.


Feels Like: 68 °F
Forecast: 71 / 85 °F
Wind: 5 mph from North

Location: Belo Horizonte Airport

Current Time: Nov 23, 2014 at 8:01:23 AM

Latest Report: Nov 23, 2014 at 7:00 AM


Visibility: N/A

Pressure: 30.04 "Hg

Humidity: 88%

Dew point: 64 °F

Location of VitóriaLocation

Historic Weather in Vitória — Graph

°F

Vitória temperature yesterday

Maximum temperature yesterday: 88 °F (at 4:00 PM)
Minimum temperature yesterday: 68 °F (at 3:00 AM)
Average temperature yesterday: 77 °F

Past Weeks' High & Low Weather Summary

 TemperatureHumidityPressure
High90 °F (Nov 9, 3:00 PM)94% (Nov 10, 1:00 AM)30.12 "Hg (Nov 10, 1:00 AM)
Low61 °F (Nov 16, 1:00 AM)23% (Nov 19, 5:00 PM)29.83 "Hg (Nov 12, 3:00 PM)
Average73 °F63%29.99 "Hg
* Reported Nov 8 7:00 AM — Nov 23 7:00 AM, Vitória, Weather by CustomWeather, © 2014

Note: Actual official high and low records may vary slightly from our data, if they occured in-between our weather recording intervals... More about our weather records

Advertising

Vitória weather history for previous 24 hours

 ConditionsComfort  
Time TempWeatherWind HumidityBarometerVisibility
7:00 AM
Nov 23
68 °FPassing clouds.5 mph88%30.04 "HgN/A
6:00 AM68 °FPassing clouds.7 mph88%30.01 "HgN/A
5:00 AM72 °FPassing clouds.5 mph65%29.98 "HgN/A
4:00 AM73 °FPassing clouds.6 mph61%29.98 "HgN/A
3:00 AM73 °FPassing clouds.5 mph61%30.01 "HgN/A
2:00 AM75 °FPassing clouds.6 mph57%30.01 "HgN/A
1:00 AM75 °FPassing clouds.7 mph57%30.01 "HgN/A
12:00 AM77 °FPassing clouds.6 mph57%30.04 "HgN/A
11:00 PM
Nov 22
77 °FPassing clouds.7 mph57%30.04 "HgN/A
10:00 PM79 °FPassing clouds.7 mph51%30.01 "HgN/A
9:00 PM81 °FClear.7 mph51%29.98 "Hg10 mi
8:00 PM82 °FSunny.10 mph48%29.95 "Hg10 mi
7:00 PM86 °FPassing clouds.8 mph38%29.92 "HgN/A
6:00 PM86 °FPassing clouds.10 mph38%29.89 "HgN/A
5:00 PM88 °FPassing clouds.9 mph31%29.92 "HgN/A
4:00 PM88 °FScattered clouds.7 mph33%29.95 "HgN/A
3:00 PM86 °FScattered clouds.7 mph38%29.98 "HgN/A
2:00 PM86 °FScattered clouds.9 mph38%30.01 "HgN/A
1:00 PM82 °FScattered clouds.9 mph45%30.04 "HgN/A
12:00 PM82 °FScattered clouds.7 mph45%30.07 "HgN/A
11:00 AM79 °FPassing clouds.6 mph58%30.07 "HgN/A
10:00 AM75 °FSunny.8 mph61%30.09 "Hg10 mi
9:00 AM73 °FSunny.7 mph69%30.07 "Hg10 mi
8:00 AM70 °FSunny.3 mph78%30.07 "Hg10 mi
Weather by CustomWeather, © 2014

See weather overviewHow to use our weather pages